User: anonymous   Login
Location: Unspecified
(0.0000°N, 0.0000°E)
Time: 01:26:28
(UTC+00:00)
Language:

N. Korean satellite - Orbit

View from above orbital plane
View from above orbital plane
View from above satellite
View from above satellite

Ground track
Ground track

The orbit data is extracted from the following two-line orbital elements,

1 39026U 12072A   14355.19117883  .00018124  00000-0  88809-3 0  2128
2 39026 097.3051 027.9502 0050774 136.6802 223.8441 15.17040131111696
Epoch (UTC): 21 December 2014 04:35:17
Eccentricity: 0.0050774
inclination: 97.3051°
perigee height: 480 km
apogee height: 550 km
right ascension of ascending node: 27.9502°
argument of perigee: 136.6802°
revolutions per day: 15.17040131
mean anomaly at epoch: 223.8441°
orbit number at epoch: 11169

The dashed part of the orbit path shows where the satellite is in the earth's shadow,  

DLR